When you browse on this site, cookies collect data to enhance your experience and personalize the content and advertising you see.
Visit our Privacy Policy to learn more. By continuing to use the site, you agree to this use of cookies and data.
  • In Portugal
  • List of Countries
  • For 7 days
  • Water Temperature
  • Satellite Maps
  • Weather Map
  • Weather Widgets
  • user-avatar
    Login

    Hourly Weather Lubla

    Today, 24 March, Sunday

    Time Temperature Precipitation Wind Pressure Humidity
    00:00 +8°C° 0 mm 1 mps 744 mmHg 52%
    01:00 +8°C° 0 mm 1 mps 744 mmHg 61%
    02:00 +8°C° 0 mm 1 mps 744 mmHg 66%
    03:00 +8°C° 0 mm 1 mps 744 mmHg 70%
    04:00 +7°C° 0 mm 2 mps 744 mmHg 75%
    05:00 +7°C° 0.1 mm 2 mps 744 mmHg 81%
    06:00 +7°C° 0.1 mm 3 mps 744 mmHg 86%
    07:00 +7°C° 0.1 mm 3 mps 744 mmHg 92%
    08:00 +8°C° 0 mm 3 mps 744 mmHg 87%
    09:00 +8°C° 0 mm 3 mps 744 mmHg 82%
    10:00 +9°C° 0 mm 3 mps 744 mmHg 77%
    11:00 +10°C° 0 mm 3 mps 744 mmHg 70%
    12:00 +11°C° 0 mm 3 mps 744 mmHg 63%
    13:00 +12°C° 0 mm 3 mps 743 mmHg 56%
    14:00 +13°C° 0 mm 2 mps 743 mmHg 53%
    15:00 +13°C° 0 mm 2 mps 742 mmHg 51%
    16:00 +13°C° 0 mm 2 mps 742 mmHg 49%
    17:00 +12°C° 0 mm 1 mps 741 mmHg 53%
    18:00 +10°C° 0 mm 1 mps 741 mmHg 57%
    19:00 +8°C° 0 mm 0 mps 741 mmHg 61%
    20:00 +8°C° 0 mm 0 mps 740 mmHg 61%
    21:00 +8°C° 0 mm 0 mps 740 mmHg 61%
    22:00 +9°C° 0 mm 1 mps 740 mmHg 61%
    23:00 +9°C° 0.3 mm 1 mps 739 mmHg 66%

    Tomorrow, 25 March, Monday

    Time Temperature Precipitation Wind Pressure Humidity
    00:00 +7°C° 0.3 mm 0 mps 739 mmHg 70%
    01:00 +7°C° 0.3 mm 0 mps 738 mmHg 75%
    02:00 +7°C° 0.1 mm 1 mps 738 mmHg 77%
    03:00 +7°C° 0.1 mm 1 mps 737 mmHg 80%
    04:00 +7°C° 0.1 mm 1 mps 737 mmHg 82%
    05:00 +7°C° 0.1 mm 1 mps 736 mmHg 82%
    06:00 +5°C° 0.1 mm 2 mps 736 mmHg 82%
    07:00 +5°C° 0.1 mm 2 mps 736 mmHg 82%
    08:00 +6°C° 0 mm 2 mps 736 mmHg 75%
    09:00 +8°C° 0 mm 2 mps 736 mmHg 67%
    10:00 +9°C° 0 mm 3 mps 736 mmHg 60%
    11:00 +9°C° 0 mm 3 mps 735 mmHg 56%
    12:00 +10°C° 0 mm 4 mps 735 mmHg 52%
    13:00 +11°C° 0 mm 4 mps 735 mmHg 48%
    14:00 +9°C° 0.2 mm 5 mps 734 mmHg 52%
    15:00 +8°C° 0.2 mm 5 mps 734 mmHg 55%
    16:00 +8°C° 0.2 mm 6 mps 734 mmHg 58%
    17:00 +7°C° 0.1 mm 5 mps 735 mmHg 61%
    18:00 +6°C° 0.1 mm 5 mps 735 mmHg 64%
    19:00 +5°C° 0.1 mm 4 mps 736 mmHg 67%
    20:00 +4°C° 0 mm 4 mps 736 mmHg 69%
    21:00 +4°C° 0 mm 4 mps 737 mmHg 72%
    22:00 +3°C° 0 mm 4 mps 738 mmHg 74%
    23:00 +3°C° 0 mm 4 mps 738 mmHg 75%

    Day after tomorrow, 26 March, Tuesday

    Time Temperature Precipitation Wind Pressure Humidity
    00:00 +1°C° 0 mm 5 mps 739 mmHg 75%
    01:00 +1°C° 0 mm 5 mps 739 mmHg 75%
    02:00 +1°C° 0 mm 5 mps 740 mmHg 77%
    03:00 +1°C° 0 mm 5 mps 740 mmHg 79%
    04:00 +1°C° 0 mm 5 mps 741 mmHg 81%
    05:00 +1°C° 0 mm 5 mps 741 mmHg 82%
    06:00 +1°C° 0 mm 5 mps 742 mmHg 83%
    07:00 +1°C° 0 mm 6 mps 742 mmHg 84%
    08:00 +1°C° 0.1 mm 6 mps 743 mmHg 79%
    09:00 +1°C° 0.1 mm 5 mps 743 mmHg 75%
    10:00 +2°C° 0.1 mm 5 mps 744 mmHg 70%
    11:00 +3°C° 0 mm 6 mps 744 mmHg 64%
    12:00 +4°C° 0 mm 6 mps 743 mmHg 58%
    13:00 +5°C° 0 mm 6 mps 743 mmHg 53%
    14:00 +5°C° 0 mm 6 mps 743 mmHg 50%
    15:00 +7°C° 0 mm 6 mps 743 mmHg 48%
    16:00 +6°C° 0 mm 7 mps 743 mmHg 45%
    17:00 +5°C° 0 mm 6 mps 743 mmHg 51%
    18:00 +5°C° 0 mm 5 mps 743 mmHg 56%
    19:00 +4°C° 0 mm 4 mps 743 mmHg 61%
    20:00 +4°C° 0.1 mm 4 mps 743 mmHg 65%
    21:00 +4°C° 0.1 mm 4 mps 744 mmHg 69%
    22:00 +4°C° 0.1 mm 4 mps 744 mmHg 73%
    23:00 +3°C° 0.1 mm 4 mps 745 mmHg 75%

    27 March, Wednesday

    Time Temperature Precipitation Wind Pressure Humidity
    00:00 +2°C° 0.1 mm 3 mps 745 mmHg 77%
    01:00 +2°C° 0.1 mm 3 mps 745 mmHg 78%
    02:00 +1°C° 0 mm 3 mps 745 mmHg 79%
    03:00 0°C° 0 mm 3 mps 746 mmHg 79%
    04:00 -1°C° 0 mm 3 mps 746 mmHg 80%
    05:00 -1°C° 0 mm 2 mps 746 mmHg 73%
    06:00 -1°C° 0 mm 2 mps 747 mmHg 66%
    07:00 -1°C° 0 mm 2 mps 747 mmHg 59%
    08:00 +2°C° 0 mm 2 mps 747 mmHg 51%
    09:00 +2°C° 0 mm 3 mps 748 mmHg 43%
    10:00 +3°C° 0 mm 3 mps 748 mmHg 36%
    11:00 +4°C° 0 mm 3 mps 748 mmHg 36%
    12:00 +5°C° 0 mm 3 mps 748 mmHg 36%
    13:00 +7°C° 0 mm 3 mps 748 mmHg 35%
    14:00 +7°C° 0 mm 2 mps 748 mmHg 37%
    15:00 +7°C° 0 mm 2 mps 748 mmHg 38%
    16:00 +7°C° 0 mm 2 mps 747 mmHg 39%
    17:00 +7°C° 0 mm 1 mps 748 mmHg 43%
    18:00 +6°C° 0 mm 1 mps 748 mmHg 47%
    19:00 +5°C° 0 mm 1 mps 748 mmHg 51%
    20:00 +4°C° 0 mm 1 mps 748 mmHg 52%
    21:00 +4°C° 0 mm 1 mps 749 mmHg 54%
    22:00 +2°C° 0 mm 2 mps 749 mmHg 56%
    23:00 +3°C° 0 mm 1 mps 749 mmHg 57%

    28 March, Thursday

    Time Temperature Precipitation Wind Pressure Humidity
    00:00 +3°C° 0 mm 1 mps 749 mmHg 59%
    01:00 +2°C° 0 mm 1 mps 749 mmHg 60%
    02:00 +2°C° 0 mm 1 mps 749 mmHg 62%
    03:00 +2°C° 0 mm 1 mps 749 mmHg 63%
    04:00 +2°C° 0 mm 1 mps 749 mmHg 65%
    05:00 +3°C° 0 mm 1 mps 749 mmHg 63%
    06:00 +4°C° 0 mm 1 mps 750 mmHg 61%
    07:00 +5°C° 0 mm 1 mps 750 mmHg 60%
    08:00 +7°C° 0 mm 1 mps 750 mmHg 56%
    09:00 +9°C° 0 mm 1 mps 750 mmHg 52%
    10:00 +11°C° 0 mm 1 mps 750 mmHg 49%
    11:00 +11°C° 0 mm 1 mps 750 mmHg 47%
    12:00 +12°C° 0 mm 1 mps 750 mmHg 46%
    13:00 +13°C° 0 mm 1 mps 750 mmHg 44%
    14:00 +13°C° 0 mm 1 mps 749 mmHg 46%
    15:00 +12°C° 0 mm 2 mps 749 mmHg 47%
    16:00 +12°C° 0 mm 2 mps 749 mmHg 49%
    17:00 +10°C° 0 mm 2 mps 749 mmHg 56%
    18:00 +9°C° 0 mm 1 mps 749 mmHg 62%
    19:00 +8°C° 0 mm 1 mps 749 mmHg 69%
    20:00 +7°C° 0 mm 1 mps 749 mmHg 71%
    21:00 +6°C° 0 mm 0 mps 750 mmHg 73%
    22:00 +5°C° 0 mm 0 mps 750 mmHg 75%
    23:00 +5°C° 0 mm 0 mps 750 mmHg 75%

    29 March, Friday

    Time Temperature Precipitation Wind Pressure Humidity
    00:00 +6°C° 0 mm 1 mps 750 mmHg 76%
    01:00 +6°C° 0 mm 1 mps 750 mmHg 76%
    02:00 +6°C° 0 mm 1 mps 750 mmHg 79%
    03:00 +5°C° 0 mm 1 mps 750 mmHg 83%
    04:00 +4°C° 0 mm 1 mps 750 mmHg 86%
    05:00 +5°C° 0 mm 1 mps 750 mmHg 84%
    06:00 +6°C° 0 mm 1 mps 750 mmHg 82%
    07:00 +6°C° 0 mm 1 mps 750 mmHg 80%
    08:00 +7°C° 0 mm 2 mps 750 mmHg 74%
    09:00 +8°C° 0 mm 2 mps 750 mmHg 68%
    10:00 +10°C° 0 mm 3 mps 750 mmHg 62%
    11:00 +11°C° 0 mm 3 mps 750 mmHg 58%
    12:00 +12°C° 0 mm 3 mps 749 mmHg 53%
    13:00 +12°C° 0 mm 3 mps 749 mmHg 49%
    14:00 +13°C° 0 mm 3 mps 749 mmHg 48%
    15:00 +13°C° 0 mm 3 mps 748 mmHg 48%
    16:00 +13°C° 0 mm 3 mps 748 mmHg 47%
    17:00 +12°C° 0 mm 2 mps 748 mmHg 52%
    18:00 +11°C° 0 mm 1 mps 748 mmHg 58%
    19:00 +9°C° 0 mm 1 mps 748 mmHg 63%
    20:00 +9°C° 0 mm 1 mps 748 mmHg 66%
    21:00 +8°C° 0 mm 1 mps 748 mmHg 68%
    22:00 +8°C° 0 mm 1 mps 748 mmHg 71%
    23:00 +7°C° 0 mm 1 mps 748 mmHg 74%
    Show more